Time,TemperatureF,DewpointF,PressureIn,WindDirection,WindDirectionDegrees,WindSpeedMPH,WindSpeedGustMPH,Humidity,HourlyPrecipIn,Conditions,Clouds,dailyrainin,SoftwareType,DateUTC
2013-05-25 00:02:00,54.7,44.6,29.84,SSW,200,0.0,3.1,65,0.00,,---,0.00,cosweather0.1e,2013-05-25 07:02:00,
2013-05-25 00:07:00,54.7,44.6,29.84,SSW,195,0.0,5.8,65,0.00,,---,0.00,cosweather0.1e,2013-05-25 07:07:00,
2013-05-25 00:12:00,54.5,44.6,29.84,West,274,0.0,3.6,65,0.00,,---,0.00,cosweather0.1e,2013-05-25 07:12:00,
2013-05-25 00:17:00,54.7,44.6,29.84,SSW,196,0.0,4.0,65,0.00,,---,0.00,cosweather0.1e,2013-05-25 07:17:00,
2013-05-25 00:22:00,54.7,44.6,29.84,SSW,194,0.0,2.7,66,0.00,,---,0.00,cosweather0.1e,2013-05-25 07:22:00,
2013-05-25 00:27:00,54.5,44.6,29.84,SSW,209,0.0,3.1,66,0.00,,---,0.00,cosweather0.1e,2013-05-25 07:27:00,
2013-05-25 00:32:00,54.5,44.6,29.84,South,181,0.0,3.6,66,0.00,,---,0.00,cosweather0.1e,2013-05-25 07:32:00,
2013-05-25 00:38:00,54.5,44.6,29.84,South,182,0.0,2.7,66,0.00,,---,0.00,cosweather0.1e,2013-05-25 07:38:00,
2013-05-25 00:43:00,54.5,44.6,29.84,SSW,198,0.0,4.0,65,0.00,,---,0.00,cosweather0.1e,2013-05-25 07:43:00,
2013-05-25 00:48:00,54.5,44.6,29.84,WSW,256,0.0,2.2,65,0.00,,---,0.00,cosweather0.1e,2013-05-25 07:48:00,
2013-05-25 00:53:00,54.7,44.6,29.84,SW,225,0.0,3.1,65,0.00,,---,0.00,cosweather0.1e,2013-05-25 07:53:00,
2013-05-25 00:58:00,54.7,44.6,29.84,SSW,198,0.0,4.0,66,0.00,,---,0.00,cosweather0.1e,2013-05-25 07:58:00,
2013-05-25 01:03:00,54.5,44.6,29.84,SSW,204,0.0,2.7,66,0.00,,---,0.00,cosweather0.1e,2013-05-25 08:03:00,
2013-05-25 01:08:00,54.7,44.6,29.84,SSW,202,0.0,2.2,66,0.00,,---,0.00,cosweather0.1e,2013-05-25 08:08:00,
2013-05-25 01:13:00,54.7,44.6,29.84,SW,214,0.0,0.0,66,0.00,,---,0.00,cosweather0.1e,2013-05-25 08:13:00,
2013-05-25 01:18:00,54.7,44.6,29.84,SSE,167,0.0,4.0,66,0.00,,---,0.00,cosweather0.1e,2013-05-25 08:18:00,
2013-05-25 01:23:00,54.5,44.6,29.84,SSW,203,0.0,6.3,66,0.00,,---,0.00,cosweather0.1e,2013-05-25 08:23:00,
2013-05-25 01:28:00,54.5,44.6,29.84,South,187,0.0,4.9,66,0.00,,---,0.00,cosweather0.1e,2013-05-25 08:28:00,
2013-05-25 01:33:00,54.5,44.6,29.84,SW,232,0.0,2.7,66,0.00,,---,0.00,cosweather0.1e,2013-05-25 08:33:00,
2013-05-25 01:38:00,54.5,44.6,29.84,SW,216,0.0,3.6,66,0.00,,---,0.00,cosweather0.1e,2013-05-25 08:38:00,
2013-05-25 01:43:00,54.5,44.6,29.84,WSW,245,0.0,2.2,66,0.00,,---,0.00,cosweather0.1e,2013-05-25 08:43:00,
2013-05-25 01:48:00,54.5,44.6,29.84,WNW,294,0.0,0.0,67,0.00,,---,0.00,cosweather0.1e,2013-05-25 08:48:00,
2013-05-25 01:53:00,54.5,44.6,29.84,SSW,209,0.0,2.7,67,0.00,,---,0.00,cosweather0.1e,2013-05-25 08:53:00,
2013-05-25 01:58:00,54.5,44.6,29.84,West,266,0.0,2.7,67,0.00,,---,0.00,cosweather0.1e,2013-05-25 08:58:00,
2013-05-25 02:03:00,54.5,44.6,29.84,WSW,240,0.0,0.0,67,0.00,,---,0.00,cosweather0.1e,2013-05-25 09:03:00,
2013-05-25 02:08:00,54.5,44.6,29.84,WSW,246,0.0,2.7,67,0.00,,---,0.00,cosweather0.1e,2013-05-25 09:08:00,
2013-05-25 02:13:00,54.5,44.6,29.84,West,270,0.0,2.7,67,0.00,,---,0.00,cosweather0.1e,2013-05-25 09:13:00,
2013-05-25 02:18:00,54.3,42.8,29.84,NW,315,0.0,0.0,67,0.00,,---,0.00,cosweather0.1e,2013-05-25 09:18:00,
2013-05-25 02:23:00,54.1,42.8,29.84,WNW,290,0.0,4.0,67,0.00,,---,0.00,cosweather0.1e,2013-05-25 09:23:00,
2013-05-25 02:28:00,54.1,42.8,29.84,WSW,238,0.0,2.7,67,0.00,,---,0.00,cosweather0.1e,2013-05-25 09:28:00,
2013-05-25 02:33:00,54.1,42.8,29.84,WSW,250,0.0,0.0,67,0.00,,---,0.00,cosweather0.1e,2013-05-25 09:33:00,
2013-05-25 02:38:00,54.1,42.8,29.84,NW,311,0.0,0.0,67,0.00,,---,0.00,cosweather0.1e,2013-05-25 09:38:00,
2013-05-25 02:43:00,54.1,42.8,29.84,WSW,243,0.0,0.0,67,0.00,,---,0.00,cosweather0.1e,2013-05-25 09:43:00,
2013-05-25 02:48:00,54.3,42.8,29.84,WSW,244,0.0,0.0,67,0.00,,---,0.00,cosweather0.1e,2013-05-25 09:48:00,
2013-05-25 02:53:00,54.3,42.8,29.84,SW,234,0.0,2.7,68,0.00,,---,0.00,cosweather0.1e,2013-05-25 09:53:00,
2013-05-25 02:58:00,54.3,42.8,29.84,SW,236,0.0,0.0,67,0.00,,---,0.00,cosweather0.1e,2013-05-25 09:58:00,
2013-05-25 03:03:00,54.3,42.8,29.84,SW,236,0.0,0.0,67,0.00,,---,0.00,cosweather0.1e,2013-05-25 10:03:00,
2013-05-25 03:08:00,54.3,42.8,29.84,SSW,196,0.0,0.0,67,0.00,,---,0.00,cosweather0.1e,2013-05-25 10:08:00,
2013-05-25 03:13:00,54.5,44.6,29.84,SSW,197,0.0,0.0,67,0.00,,---,0.00,cosweather0.1e,2013-05-25 10:13:00,
2013-05-25 03:18:00,54.5,44.6,29.84,SSW,197,0.0,0.0,67,0.00,,---,0.00,cosweather0.1e,2013-05-25 10:18:00,
2013-05-25 03:23:00,54.5,44.6,29.84,SSW,197,0.0,0.0,67,0.00,,---,0.00,cosweather0.1e,2013-05-25 10:23:00,
2013-05-25 03:28:00,54.5,44.6,29.84,SSW,197,0.0,0.0,67,0.00,,---,0.00,cosweather0.1e,2013-05-25 10:28:00,
2013-05-25 03:33:00,54.5,44.6,29.84,SSW,197,0.0,0.0,67,0.00,,---,0.00,cosweather0.1e,2013-05-25 10:33:00,
2013-05-25 03:38:00,54.5,44.6,29.84,SSW,196,0.0,0.0,67,0.00,,---,0.00,cosweather0.1e,2013-05-25 10:38:00,
2013-05-25 03:43:00,54.5,44.6,29.84,ESE,102,0.0,0.0,67,0.00,,---,0.00,cosweather0.1e,2013-05-25 10:43:00,
2013-05-25 03:48:00,54.1,42.8,29.84,SW,220,0.0,0.0,67,0.00,,---,0.00,cosweather0.1e,2013-05-25 10:48:00,
2013-05-25 03:53:00,54.1,42.8,29.84,SW,216,0.0,0.0,67,0.00,,---,0.00,cosweather0.1e,2013-05-25 10:53:00,
2013-05-25 03:58:00,54.1,42.8,29.84,SW,216,0.0,0.0,67,0.00,,---,0.00,cosweather0.1e,2013-05-25 10:58:00,
2013-05-25 04:03:00,54.1,42.8,29.84,South,184,0.0,0.0,67,0.00,,---,0.00,cosweather0.1e,2013-05-25 11:03:00,
2013-05-25 04:08:00,54.1,42.8,29.84,South,184,0.0,0.0,67,0.00,,---,0.00,cosweather0.1e,2013-05-25 11:08:00,
2013-05-25 04:13:00,54.0,42.8,29.84,SSE,157,0.0,0.0,67,0.00,,---,0.00,cosweather0.1e,2013-05-25 11:13:00,
2013-05-25 04:18:00,54.0,42.8,29.84,SSE,156,0.0,0.0,67,0.00,,---,0.00,cosweather0.1e,2013-05-25 11:18:00,
2013-05-25 04:23:00,54.1,42.8,29.84,SSE,156,0.0,0.0,67,0.00,,---,0.00,cosweather0.1e,2013-05-25 11:23:00,
2013-05-25 04:28:00,54.0,42.8,29.84,SSE,156,0.0,0.0,67,0.00,,---,0.00,cosweather0.1e,2013-05-25 11:28:00,
2013-05-25 04:33:00,54.0,42.8,29.84,SSE,156,0.0,0.0,67,0.00,,---,0.00,cosweather0.1e,2013-05-25 11:33:00,
2013-05-25 04:38:00,53.6,42.8,29.84,East,95,0.0,0.0,67,0.00,,---,0.00,cosweather0.1e,2013-05-25 11:38:00,
2013-05-25 04:43:00,53.6,42.8,29.84,East,95,0.0,0.0,67,0.00,,---,0.00,cosweather0.1e,2013-05-25 11:43:00,
2013-05-25 04:48:00,53.8,42.8,29.84,East,96,0.0,0.0,67,0.00,,---,0.00,cosweather0.1e,2013-05-25 11:48:00,
2013-05-25 04:53:00,53.8,42.8,29.84,East,95,0.0,0.0,67,0.00,,---,0.00,cosweather0.1e,2013-05-25 11:53:00,
2013-05-25 04:58:00,53.8,42.8,29.84,East,95,0.0,0.0,67,0.00,,---,0.00,cosweather0.1e,2013-05-25 11:58:00,
2013-05-25 05:03:00,53.8,42.8,29.84,East,96,0.0,0.0,67,0.00,,---,0.00,cosweather0.1e,2013-05-25 12:03:00,
2013-05-25 05:08:00,53.8,42.8,29.84,East,96,0.0,0.0,67,0.00,,---,0.00,cosweather0.1e,2013-05-25 12:08:00,
2013-05-25 05:13:00,54.0,42.8,29.84,East,96,0.0,0.0,67,0.00,,---,0.00,cosweather0.1e,2013-05-25 12:13:00,
2013-05-25 05:18:00,54.0,42.8,29.84,East,95,0.0,0.0,68,0.00,,---,0.00,cosweather0.1e,2013-05-25 12:18:00,
2013-05-25 05:23:00,54.0,42.8,29.84,East,96,0.0,0.0,68,0.00,,---,0.00,cosweather0.1e,2013-05-25 12:23:00,
2013-05-25 05:28:00,54.0,42.8,29.84,East,95,0.0,0.0,68,0.00,,---,0.00,cosweather0.1e,2013-05-25 12:28:00,
2013-05-25 05:33:00,54.1,42.8,29.84,East,95,0.0,0.0,68,0.00,,---,0.00,cosweather0.1e,2013-05-25 12:33:00,
2013-05-25 05:38:00,54.1,42.8,29.84,East,95,0.0,0.0,68,0.00,,---,0.00,cosweather0.1e,2013-05-25 12:38:00,
2013-05-25 05:44:00,54.1,42.8,29.84,East,95,0.0,0.0,68,0.00,,---,0.00,cosweather0.1e,2013-05-25 12:44:00,
2013-05-25 05:49:00,54.1,42.8,29.84,East,95,0.0,0.0,68,0.00,,---,0.00,cosweather0.1e,2013-05-25 12:49:00,
2013-05-25 05:54:00,54.1,42.8,29.84,East,95,0.0,0.0,68,0.00,,---,0.00,cosweather0.1e,2013-05-25 12:54:00,
2013-05-25 05:59:00,54.1,42.8,29.84,East,95,0.0,0.0,68,0.00,,---,0.00,cosweather0.1e,2013-05-25 12:59:00,
2013-05-25 06:04:00,54.1,42.8,29.84,East,95,0.0,0.0,68,0.00,,---,0.00,cosweather0.1e,2013-05-25 13:04:00,
2013-05-25 06:09:00,54.0,42.8,29.84,East,95,0.0,0.0,67,0.00,,---,0.00,cosweather0.1e,2013-05-25 13:09:00,
2013-05-25 06:14:00,54.0,42.8,29.84,East,95,0.0,0.0,67,0.00,,---,0.00,cosweather0.1e,2013-05-25 13:14:00,
2013-05-25 06:19:00,54.0,42.8,29.84,East,95,0.0,0.0,67,0.00,,---,0.00,cosweather0.1e,2013-05-25 13:19:00,
2013-05-25 06:24:00,53.8,42.8,29.84,East,95,0.0,0.0,67,0.00,,---,0.00,cosweather0.1e,2013-05-25 13:24:00,
2013-05-25 06:29:00,53.8,42.8,29.84,East,95,0.0,0.0,67,0.00,,---,0.00,cosweather0.1e,2013-05-25 13:29:00,
2013-05-25 06:34:00,53.6,42.8,29.84,East,96,0.0,0.0,66,0.00,,---,0.00,cosweather0.1e,2013-05-25 13:34:00,
2013-05-25 06:39:00,53.8,42.8,29.84,East,95,0.0,0.0,67,0.00,,---,0.00,cosweather0.1e,2013-05-25 13:39:00,
2013-05-25 06:44:00,53.8,42.8,29.84,East,95,0.0,0.0,67,0.00,,---,0.00,cosweather0.1e,2013-05-25 13:44:00,
2013-05-25 06:49:00,54.0,42.8,29.88,East,96,0.0,0.0,67,0.00,,---,0.00,cosweather0.1e,2013-05-25 13:49:00,
2013-05-25 06:54:00,54.0,42.8,29.88,East,95,0.0,0.0,66,0.00,,---,0.00,cosweather0.1e,2013-05-25 13:54:00,
2013-05-25 06:59:00,54.0,42.8,29.88,East,96,0.0,0.0,67,0.00,,---,0.00,cosweather0.1e,2013-05-25 13:59:00,
2013-05-25 07:04:00,54.0,42.8,29.84,East,95,0.0,0.0,67,0.00,,---,0.00,cosweather0.1e,2013-05-25 14:04:00,
2013-05-25 07:09:00,54.1,42.8,29.84,East,95,0.0,0.0,67,0.00,,---,0.00,cosweather0.1e,2013-05-25 14:09:00,
2013-05-25 07:14:00,54.1,42.8,29.84,East,95,0.0,0.0,67,0.00,,---,0.00,cosweather0.1e,2013-05-25 14:14:00,
2013-05-25 07:19:00,54.1,42.8,29.84,South,187,0.0,4.0,67,0.00,,---,0.00,cosweather0.1e,2013-05-25 14:19:00,
2013-05-25 07:24:00,54.0,42.8,29.84,SSW,194,0.0,3.1,67,0.00,,---,0.00,cosweather0.1e,2013-05-25 14:24:00,
2013-05-25 07:29:00,53.8,42.8,29.84,South,190,0.0,0.0,67,0.00,,---,0.00,cosweather0.1e,2013-05-25 14:29:00,
2013-05-25 07:34:00,54.0,42.8,29.88,SSW,197,0.0,0.0,68,0.00,,---,0.00,cosweather0.1e,2013-05-25 14:34:00,
2013-05-25 07:39:00,54.1,42.8,29.88,SSW,194,0.0,0.0,68,0.00,,---,0.00,cosweather0.1e,2013-05-25 14:39:00,
2013-05-25 07:44:00,54.3,42.8,29.88,SSW,194,0.0,0.0,68,0.00,,---,0.00,cosweather0.1e,2013-05-25 14:44:00,
2013-05-25 07:49:00,54.3,42.8,29.88,SSW,198,0.0,0.0,68,0.00,,---,0.00,cosweather0.1e,2013-05-25 14:49:00,
2013-05-25 07:54:00,54.3,42.8,29.88,SSW,196,0.0,3.1,68,0.00,,---,0.00,cosweather0.1e,2013-05-25 14:54:00,
2013-05-25 07:59:00,54.3,42.8,29.88,SSW,192,0.0,4.9,68,0.00,,---,0.00,cosweather0.1e,2013-05-25 14:59:00,
2013-05-25 08:04:00,54.3,42.8,29.88,SSW,195,0.0,3.6,68,0.00,,---,0.00,cosweather0.1e,2013-05-25 15:04:00,
2013-05-25 08:09:00,54.3,44.6,29.88,WSW,240,0.0,4.9,69,0.00,,---,0.00,cosweather0.1e,2013-05-25 15:09:00,
2013-05-25 08:14:00,54.5,44.6,29.88,SW,218,0.0,4.9,69,0.00,,---,0.00,cosweather0.1e,2013-05-25 15:14:00,
2013-05-25 08:19:00,54.5,44.6,29.88,SSW,202,0.0,3.6,68,0.00,,---,0.00,cosweather0.1e,2013-05-25 15:19:00,
2013-05-25 08:24:00,54.5,44.6,29.88,NW,326,0.0,0.0,68,0.00,,---,0.00,cosweather0.1e,2013-05-25 15:24:00,
2013-05-25 08:29:00,54.9,44.6,29.88,SW,228,0.0,4.0,68,0.00,,---,0.00,cosweather0.1e,2013-05-25 15:29:00,
2013-05-25 08:34:00,55.0,44.6,29.88,SW,224,0.0,3.6,68,0.00,,---,0.00,cosweather0.1e,2013-05-25 15:34:00,
2013-05-25 08:39:00,55.0,44.6,29.88,SSW,204,0.0,2.7,67,0.00,,---,0.00,cosweather0.1e,2013-05-25 15:39:00,
2013-05-25 08:44:00,55.0,44.6,29.88,South,191,0.0,2.7,67,0.00,,---,0.00,cosweather0.1e,2013-05-25 15:44:00,
2013-05-25 08:49:00,55.0,44.6,29.88,SW,217,0.0,4.9,67,0.00,,---,0.00,cosweather0.1e,2013-05-25 15:49:00,
2013-05-25 08:54:00,55.2,44.6,29.88,SSW,207,0.0,2.2,67,0.00,,---,0.00,cosweather0.1e,2013-05-25 15:54:00,
2013-05-25 08:59:00,55.6,44.6,29.88,WNW,291,0.0,6.3,66,0.00,,---,0.00,cosweather0.1e,2013-05-25 15:59:00,
2013-05-25 09:04:00,55.9,44.6,29.88,WSW,253,0.0,4.0,66,0.00,,---,0.00,cosweather0.1e,2013-05-25 16:04:00,
2013-05-25 09:09:00,56.3,46.4,29.88,WSW,238,0.0,7.6,66,0.00,,---,0.00,cosweather0.1e,2013-05-25 16:09:00,
2013-05-25 09:14:00,56.3,44.6,29.88,NW,319,0.0,3.6,65,0.00,,---,0.00,cosweather0.1e,2013-05-25 16:14:00,
2013-05-25 09:19:00,56.5,44.6,29.88,West,263,0.0,0.0,65,0.00,,---,0.00,cosweather0.1e,2013-05-25 16:19:00,
2013-05-25 09:24:00,56.7,44.6,29.88,SSW,211,0.0,6.3,65,0.00,,---,0.00,cosweather0.1e,2013-05-25 16:24:00,
2013-05-25 09:29:00,56.7,44.6,29.88,NW,315,0.0,4.0,63,0.00,,---,0.00,cosweather0.1e,2013-05-25 16:29:00,
2013-05-25 09:34:00,56.8,44.6,29.88,WSW,247,0.0,7.6,63,0.00,,---,0.00,cosweather0.1e,2013-05-25 16:34:00,
2013-05-25 09:39:00,57.2,44.6,29.88,NW,313,0.0,5.4,62,0.00,,---,0.00,cosweather0.1e,2013-05-25 16:39:00,
2013-05-25 09:44:00,57.4,44.6,29.88,NW,307,0.0,6.3,62,0.00,,---,0.00,cosweather0.1e,2013-05-25 16:44:00,
2013-05-25 09:49:00,57.6,44.6,29.88,SW,235,0.0,6.7,61,0.00,,---,0.00,cosweather0.1e,2013-05-25 16:49:00,
2013-05-25 09:54:00,57.6,44.6,29.88,SW,215,0.0,0.0,61,0.00,,---,0.00,cosweather0.1e,2013-05-25 16:54:00,
2013-05-25 09:59:00,57.7,42.8,29.88,SW,216,0.0,5.8,60,0.00,,---,0.00,cosweather0.1e,2013-05-25 16:59:00,
2013-05-25 10:04:00,57.9,42.8,29.88,WSW,238,0.0,0.0,60,0.00,,---,0.00,cosweather0.1e,2013-05-25 17:04:00,
2013-05-25 10:09:00,58.1,46.4,29.88,SSW,205,0.0,4.0,61,0.00,,---,0.00,cosweather0.1e,2013-05-25 17:09:00,
2013-05-25 10:14:00,58.3,44.6,29.88,WSW,257,0.0,3.1,60,0.00,,---,0.00,cosweather0.1e,2013-05-25 17:14:00,
2013-05-25 10:19:00,58.5,44.6,29.88,SSW,194,0.0,7.6,58,0.00,,---,0.00,cosweather0.1e,2013-05-25 17:19:00,
2013-05-25 10:24:00,58.6,44.6,29.88,SW,229,0.0,6.3,59,0.00,,---,0.00,cosweather0.1e,2013-05-25 17:24:00,
2013-05-25 10:29:00,58.8,44.6,29.88,SSW,195,0.0,3.6,58,0.00,,---,0.00,cosweather0.1e,2013-05-25 17:29:00,
2013-05-25 10:34:00,59.2,44.6,29.88,WNW,297,0.0,4.9,57,0.00,,---,0.00,cosweather0.1e,2013-05-25 17:34:00,
2013-05-25 10:40:00,59.7,42.8,29.88,West,273,0.0,3.1,56,0.00,,---,0.00,cosweather0.1e,2013-05-25 17:40:00,
2013-05-25 10:45:00,59.9,44.6,29.88,South,177,0.0,3.1,56,0.00,,---,0.00,cosweather0.1e,2013-05-25 17:45:00,
2013-05-25 10:50:00,60.1,44.6,29.88,NW,320,0.0,4.0,55,0.00,,---,0.00,cosweather0.1e,2013-05-25 17:50:00,
2013-05-25 10:55:00,60.6,44.6,29.88,NNW,337,0.0,4.9,56,0.00,,---,0.00,cosweather0.1e,2013-05-25 17:55:00,
2013-05-25 11:00:00,61.2,44.6,29.88,SW,230,0.0,4.9,55,0.00,,---,0.00,cosweather0.1e,2013-05-25 18:00:00,
2013-05-25 11:05:00,61.7,44.6,29.88,SW,232,0.0,3.6,53,0.00,,---,0.00,cosweather0.1e,2013-05-25 18:05:00,
2013-05-25 11:10:00,61.9,44.6,29.88,NW,310,0.0,8.3,52,0.00,,---,0.00,cosweather0.1e,2013-05-25 18:10:00,
2013-05-25 11:15:00,62.2,44.6,29.88,NW,319,0.0,4.0,51,0.00,,---,0.00,cosweather0.1e,2013-05-25 18:15:00,
2013-05-25 11:20:00,62.6,44.6,29.88,NW,313,0.0,4.0,52,0.00,,---,0.00,cosweather0.1e,2013-05-25 18:20:00,
2013-05-25 11:25:00,63.0,42.8,29.88,SSW,200,0.0,5.4,50,0.00,,---,0.00,cosweather0.1e,2013-05-25 18:25:00,
2013-05-25 11:30:00,63.3,44.6,29.88,NW,323,0.0,3.1,51,0.00,,---,0.00,cosweather0.1e,2013-05-25 18:30:00,
2013-05-25 11:35:00,63.5,44.6,29.88,WNW,283,0.0,3.1,50,0.00,,---,0.00,cosweather0.1e,2013-05-25 18:35:00,
2013-05-25 11:40:00,63.9,44.6,29.88,NNW,342,0.0,4.0,49,0.00,,---,0.00,cosweather0.1e,2013-05-25 18:40:00,
2013-05-25 11:45:00,64.2,44.6,29.88,West,265,0.0,5.4,49,0.00,,---,0.00,cosweather0.1e,2013-05-25 18:45:00,
2013-05-25 11:50:00,64.4,44.6,29.88,NW,320,0.0,4.0,49,0.00,,---,0.00,cosweather0.1e,2013-05-25 18:50:00,
2013-05-25 11:55:00,64.8,44.6,29.88,WNW,303,0.0,3.6,49,0.00,,---,0.00,cosweather0.1e,2013-05-25 18:55:00,
2013-05-25 12:00:00,64.9,44.6,29.88,NNW,337,0.0,2.7,48,0.00,,---,0.00,cosweather0.1e,2013-05-25 19:00:00,
2013-05-25 12:05:00,65.1,44.6,29.88,NNW,331,0.0,6.3,48,0.00,,---,0.00,cosweather0.1e,2013-05-25 19:05:00,
2013-05-25 12:10:00,65.5,44.6,29.88,NNW,344,0.0,5.8,46,0.00,,---,0.00,cosweather0.1e,2013-05-25 19:10:00,
2013-05-25 12:15:00,65.5,44.6,29.88,SSW,199,0.0,8.1,47,0.00,,---,0.00,cosweather0.1e,2013-05-25 19:15:00,
2013-05-25 12:20:00,65.5,44.6,29.88,WSW,255,0.0,5.8,46,0.00,,---,0.00,cosweather0.1e,2013-05-25 19:20:00,
2013-05-25 12:25:00,65.7,44.6,29.88,NW,309,0.0,2.7,46,0.00,,---,0.00,cosweather0.1e,2013-05-25 19:25:00,
2013-05-25 12:30:00,65.8,44.6,29.88,NNW,339,0.0,4.0,45,0.00,,---,0.00,cosweather0.1e,2013-05-25 19:30:00,
2013-05-25 12:35:00,65.8,44.6,29.88,NNW,338,0.0,3.1,45,0.00,,---,0.00,cosweather0.1e,2013-05-25 19:35:00,
2013-05-25 12:40:00,66.0,44.6,29.88,NW,305,0.0,4.0,45,0.00,,---,0.00,cosweather0.1e,2013-05-25 19:40:00,
2013-05-25 12:45:00,66.0,44.6,29.88,SSW,193,0.0,2.2,45,0.00,,---,0.00,cosweather0.1e,2013-05-25 19:45:00,
2013-05-25 12:50:00,66.6,42.8,29.88,NNW,341,0.0,5.4,44,0.00,,---,0.00,cosweather0.1e,2013-05-25 19:50:00,
2013-05-25 12:55:00,66.7,42.8,29.88,North,9,0.0,5.8,44,0.00,,---,0.00,cosweather0.1e,2013-05-25 19:55:00,
2013-05-25 13:00:00,66.7,42.8,29.88,NW,308,0.0,5.8,43,0.00,,---,0.00,cosweather0.1e,2013-05-25 20:00:00,
2013-05-25 13:05:00,67.1,44.6,29.92,West,263,0.0,7.6,44,0.00,,---,0.00,cosweather0.1e,2013-05-25 20:05:00,
2013-05-25 13:10:00,66.9,42.8,29.92,NW,319,0.0,6.3,43,0.00,,---,0.00,cosweather0.1e,2013-05-25 20:10:00,
2013-05-25 13:15:00,66.4,42.8,29.92,SW,233,0.0,3.1,43,0.00,,---,0.00,cosweather0.1e,2013-05-25 20:15:00,
2013-05-25 13:20:00,66.2,42.8,29.88,WNW,303,0.0,3.6,43,0.00,,---,0.00,cosweather0.1e,2013-05-25 20:20:00,
2013-05-25 13:25:00,66.4,42.8,29.88,SW,218,0.0,5.8,44,0.00,,---,0.00,cosweather0.1e,2013-05-25 20:25:00,
2013-05-25 13:30:00,66.7,42.8,29.88,West,263,0.0,6.3,43,0.00,,---,0.00,cosweather0.1e,2013-05-25 20:30:00,
2013-05-25 13:35:00,66.7,42.8,29.88,NW,308,0.0,7.2,43,0.00,,---,0.00,cosweather0.1e,2013-05-25 20:35:00,
2013-05-25 13:40:00,66.7,42.8,29.88,WSW,245,0.0,5.8,43,0.00,,---,0.00,cosweather0.1e,2013-05-25 20:40:00,
2013-05-25 13:45:00,66.6,42.8,29.88,West,267,0.0,4.0,43,0.00,,---,0.00,cosweather0.1e,2013-05-25 20:45:00,
2013-05-25 13:50:00,66.6,42.8,29.88,WSW,240,0.0,8.1,43,0.00,,---,0.00,cosweather0.1e,2013-05-25 20:50:00,
2013-05-25 13:55:00,66.6,42.8,29.88,South,174,0.0,4.9,42,0.00,,---,0.00,cosweather0.1e,2013-05-25 20:55:00,
2013-05-25 14:00:00,66.6,42.8,29.88,West,266,0.0,7.6,43,0.00,,---,0.00,cosweather0.1e,2013-05-25 21:00:00,
2013-05-25 14:05:00,66.7,42.8,29.88,NNW,340,0.0,5.4,43,0.00,,---,0.00,cosweather0.1e,2013-05-25 21:05:00,
2013-05-25 14:10:00,66.6,42.8,29.88,WNW,282,0.0,5.4,42,0.00,,---,0.00,cosweather0.1e,2013-05-25 21:10:00,
2013-05-25 14:15:00,66.6,42.8,29.88,West,259,0.0,5.8,42,0.00,,---,0.00,cosweather0.1e,2013-05-25 21:15:00,
2013-05-25 14:20:00,66.6,42.8,29.92,West,272,0.0,6.3,43,0.00,,---,0.00,cosweather0.1e,2013-05-25 21:20:00,
2013-05-25 14:25:00,66.7,42.8,29.92,SW,223,0.0,9.2,42,0.00,,---,0.00,cosweather0.1e,2013-05-25 21:25:00,
2013-05-25 14:30:00,66.7,42.8,29.92,NNW,336,0.0,8.1,42,0.00,,---,0.00,cosweather0.1e,2013-05-25 21:30:00,
2013-05-25 14:35:00,66.7,42.8,29.92,NW,305,0.0,4.9,42,0.00,,---,0.00,cosweather0.1e,2013-05-25 21:35:00,
2013-05-25 14:40:00,66.4,42.8,29.92,NW,318,0.0,8.3,42,0.00,,---,0.00,cosweather0.1e,2013-05-25 21:40:00,
2013-05-25 14:45:00,66.0,42.8,29.92,NNW,344,0.0,5.8,43,0.00,,---,0.00,cosweather0.1e,2013-05-25 21:45:00,
2013-05-25 14:50:00,66.2,42.8,29.88,West,278,0.0,8.3,42,0.00,,---,0.00,cosweather0.1e,2013-05-25 21:50:00,
2013-05-25 14:55:00,66.0,42.8,29.88,SSW,193,0.0,7.6,43,0.00,,---,0.00,cosweather0.1e,2013-05-25 21:55:00,
2013-05-25 15:00:00,65.8,42.8,29.88,NW,316,0.0,4.0,43,0.00,,---,0.00,cosweather0.1e,2013-05-25 22:00:00,
2013-05-25 15:05:00,65.7,42.8,29.92,WNW,285,0.0,6.3,43,0.00,,---,0.00,cosweather0.1e,2013-05-25 22:05:00,
2013-05-25 15:10:00,65.7,42.8,29.92,NNW,330,0.0,7.6,44,0.00,,---,0.00,cosweather0.1e,2013-05-25 22:10:00,
2013-05-25 15:15:00,65.7,42.8,29.92,North,4,0.0,5.8,43,0.00,,---,0.00,cosweather0.1e,2013-05-25 22:15:00,
2013-05-25 15:20:00,65.7,42.8,29.92,NW,308,0.0,3.1,43,0.00,,---,0.00,cosweather0.1e,2013-05-25 22:20:00,
2013-05-25 15:25:00,65.7,42.8,29.92,North,353,0.0,5.8,43,0.00,,---,0.00,cosweather0.1e,2013-05-25 22:25:00,
2013-05-25 15:30:00,65.1,42.8,29.92,NW,322,0.0,6.3,44,0.00,,---,0.00,cosweather0.1e,2013-05-25 22:30:00,
2013-05-25 15:35:00,64.8,41.0,29.92,West,260,0.0,3.1,43,0.00,,---,0.00,cosweather0.1e,2013-05-25 22:35:00,
2013-05-25 15:41:00,64.4,42.8,29.92,WNW,300,0.0,7.6,44,0.00,,---,0.00,cosweather0.1e,2013-05-25 22:41:00,
2013-05-25 15:46:00,64.4,42.8,29.92,WNW,283,0.0,3.6,45,0.00,,---,0.00,cosweather0.1e,2013-05-25 22:46:00,
2013-05-25 15:51:00,64.4,42.8,29.92,WNW,303,0.0,4.9,44,0.00,,---,0.00,cosweather0.1e,2013-05-25 22:51:00,
2013-05-25 15:56:00,64.4,42.8,29.92,NW,316,0.0,4.0,45,0.00,,---,0.00,cosweather0.1e,2013-05-25 22:56:00,
2013-05-25 16:01:00,64.0,42.8,29.92,NNW,331,0.0,4.0,45,0.00,,---,0.00,cosweather0.1e,2013-05-25 23:01:00,
2013-05-25 16:06:00,63.9,42.8,29.92,NNW,337,0.0,8.1,44,0.00,,---,0.00,cosweather0.1e,2013-05-25 23:06:00,
2013-05-25 16:11:00,63.5,42.8,29.92,NW,309,0.0,12.8,46,0.00,,---,0.00,cosweather0.1e,2013-05-25 23:11:00,
2013-05-25 16:16:00,63.5,42.8,29.92,ESE,104,0.0,3.6,47,0.00,,---,0.00,cosweather0.1e,2013-05-25 23:16:00,
2013-05-25 16:21:00,63.1,42.8,29.92,WSW,246,0.0,4.9,47,0.00,,---,0.00,cosweather0.1e,2013-05-25 23:21:00,
2013-05-25 16:26:00,63.1,42.8,29.92,SSE,147,0.0,2.7,47,0.00,,---,0.00,cosweather0.1e,2013-05-25 23:26:00,
2013-05-25 16:31:00,63.1,42.8,29.92,WNW,302,0.0,7.6,48,0.00,,---,0.00,cosweather0.1e,2013-05-25 23:31:00,
2013-05-25 16:36:00,62.8,42.8,29.92,NNW,334,0.0,4.0,50,0.00,,---,0.00,cosweather0.1e,2013-05-25 23:36:00,
2013-05-25 16:41:00,62.6,44.6,29.92,NNW,335,0.0,8.1,51,0.00,,---,0.00,cosweather0.1e,2013-05-25 23:41:00,
2013-05-25 16:46:00,62.6,44.6,29.92,NNW,332,0.0,3.6,51,0.00,,---,0.00,cosweather0.1e,2013-05-25 23:46:00,
2013-05-25 16:51:00,62.6,44.6,29.92,NNW,331,0.0,3.6,51,0.00,,---,0.00,cosweather0.1e,2013-05-25 23:51:00,
2013-05-25 16:56:00,62.6,44.6,29.92,North,0,0.0,3.1,52,0.00,,---,0.00,cosweather0.1e,2013-05-25 23:56:00,
2013-05-25 17:01:00,62.6,44.6,29.92,West,265,0.0,7.2,51,0.00,,---,0.00,cosweather0.1e,2013-05-26 00:01:00,
2013-05-25 17:06:00,62.6,44.6,29.92,NNW,334,0.0,5.8,51,0.00,,---,0.00,cosweather0.1e,2013-05-26 00:06:00,
2013-05-25 17:11:00,62.1,44.6,29.92,NW,316,0.0,3.6,52,0.00,,---,0.00,cosweather0.1e,2013-05-26 00:11:00,
2013-05-25 17:16:00,61.9,44.6,29.92,WNW,296,0.0,4.0,53,0.00,,---,0.00,cosweather0.1e,2013-05-26 00:16:00,
2013-05-25 17:21:00,61.5,44.6,29.92,NNW,328,0.0,6.3,54,0.00,,---,0.00,cosweather0.1e,2013-05-26 00:21:00,
2013-05-25 17:26:00,61.5,44.6,29.92,NNW,337,0.0,8.7,54,0.00,,---,0.00,cosweather0.1e,2013-05-26 00:26:00,
2013-05-25 17:31:00,61.5,44.6,29.92,West,275,0.0,3.6,55,0.00,,---,0.00,cosweather0.1e,2013-05-26 00:31:00,
2013-05-25 17:36:00,61.7,46.4,29.92,SSE,166,0.0,2.2,55,0.00,,---,0.00,cosweather0.1e,2013-05-26 00:36:00,
2013-05-25 17:41:00,61.5,44.6,29.92,WNW,287,0.0,4.9,55,0.00,,---,0.00,cosweather0.1e,2013-05-26 00:41:00,
2013-05-25 17:46:00,61.3,44.6,29.92,WSW,244,0.0,7.6,55,0.00,,---,0.00,cosweather0.1e,2013-05-26 00:46:00,
2013-05-25 17:51:00,61.3,44.6,29.92,WNW,293,0.0,3.1,56,0.00,,---,0.00,cosweather0.1e,2013-05-26 00:51:00,
2013-05-25 17:56:00,61.0,44.6,29.92,NE,43,0.0,2.7,56,0.00,,---,0.00,cosweather0.1e,2013-05-26 00:56:00,
2013-05-25 18:01:00,60.8,44.6,29.92,West,268,0.0,3.6,56,0.00,,---,0.00,cosweather0.1e,2013-05-26 01:01:00,
2013-05-25 18:06:00,60.8,46.4,29.92,NW,324,0.0,7.2,57,0.00,,---,0.00,cosweather0.1e,2013-05-26 01:06:00,
2013-05-25 18:11:00,60.6,46.4,29.92,SW,229,0.0,5.4,58,0.00,,---,0.00,cosweather0.1e,2013-05-26 01:11:00,
2013-05-25 18:16:00,60.6,46.4,29.92,SW,218,0.0,5.8,58,0.00,,---,0.00,cosweather0.1e,2013-05-26 01:16:00,
2013-05-25 18:21:00,60.4,46.4,29.92,WNW,300,0.0,6.3,60,0.00,,---,0.00,cosweather0.1e,2013-05-26 01:21:00,
2013-05-25 18:26:00,60.1,46.4,29.92,WNW,288,0.0,8.7,61,0.00,,---,0.00,cosweather0.1e,2013-05-26 01:26:00,
2013-05-25 18:31:00,59.7,46.4,29.92,West,268,0.0,2.7,62,0.00,,---,0.00,cosweather0.1e,2013-05-26 01:31:00,
2013-05-25 18:36:00,59.9,48.2,29.92,NW,326,0.0,6.3,63,0.00,,---,0.00,cosweather0.1e,2013-05-26 01:36:00,
2013-05-25 18:41:00,59.9,48.2,29.92,WSW,245,0.0,5.4,63,0.00,,---,0.00,cosweather0.1e,2013-05-26 01:41:00,
2013-05-25 18:46:00,59.7,46.4,29.88,SSW,206,0.0,5.8,63,0.00,,---,0.00,cosweather0.1e,2013-05-26 01:46:00,
2013-05-25 18:51:00,59.7,46.4,29.88,SW,217,0.0,4.0,64,0.00,,---,0.00,cosweather0.1e,2013-05-26 01:51:00,
2013-05-25 18:56:00,59.5,46.4,29.88,WSW,237,0.0,2.2,64,0.00,,---,0.00,cosweather0.1e,2013-05-26 01:56:00,
2013-05-25 19:01:00,59.4,46.4,29.88,SSW,199,0.0,8.7,64,0.00,,---,0.00,cosweather0.1e,2013-05-26 02:01:00,
2013-05-25 19:06:00,59.4,46.4,29.88,SSW,201,0.0,5.4,64,0.00,,---,0.00,cosweather0.1e,2013-05-26 02:06:00,
2013-05-25 19:11:00,59.4,46.4,29.88,WNW,294,0.0,3.6,65,0.00,,---,0.00,cosweather0.1e,2013-05-26 02:11:00,
2013-05-25 19:16:00,59.2,48.2,29.88,NW,315,0.0,3.6,66,0.00,,---,0.00,cosweather0.1e,2013-05-26 02:16:00,
2013-05-25 19:21:00,59.0,48.2,29.88,West,265,0.0,11.0,67,0.00,,---,0.00,cosweather0.1e,2013-05-26 02:21:00,
2013-05-25 19:26:00,58.8,48.2,29.88,West,279,0.0,5.8,67,0.00,,---,0.00,cosweather0.1e,2013-05-26 02:26:00,
2013-05-25 19:31:00,58.8,48.2,29.92,NW,325,0.0,3.6,67,0.00,,---,0.00,cosweather0.1e,2013-05-26 02:31:00,
2013-05-25 19:36:00,58.8,48.2,29.92,NW,320,0.0,8.1,68,0.00,,---,0.00,cosweather0.1e,2013-05-26 02:36:00,
2013-05-25 19:41:00,58.6,48.2,29.92,NW,313,0.0,2.7,68,0.00,,---,0.00,cosweather0.1e,2013-05-26 02:41:00,
2013-05-25 19:46:00,58.5,48.2,29.92,NW,314,0.0,2.2,69,0.00,,---,0.00,cosweather0.1e,2013-05-26 02:46:00,
2013-05-25 19:51:00,58.3,50.0,29.92,NNW,329,0.0,2.7,70,0.00,,---,0.00,cosweather0.1e,2013-05-26 02:51:00,
2013-05-25 19:56:00,58.1,50.0,29.92,SW,229,0.0,2.2,70,0.00,,---,0.00,cosweather0.1e,2013-05-26 02:56:00,
2013-05-25 20:01:00,58.3,50.0,29.92,SW,235,0.0,8.3,70,0.00,,---,0.00,cosweather0.1e,2013-05-26 03:01:00,
2013-05-25 20:06:00,58.1,50.0,29.92,NW,315,0.0,9.6,71,0.00,,---,0.00,cosweather0.1e,2013-05-26 03:06:00,
2013-05-25 20:11:00,57.7,48.2,29.92,SW,222,0.0,3.1,71,0.00,,---,0.00,cosweather0.1e,2013-05-26 03:11:00,
2013-05-25 20:16:00,57.6,48.2,29.92,South,169,0.0,3.6,72,0.00,,---,0.00,cosweather0.1e,2013-05-26 03:16:00,
2013-05-25 20:21:00,57.6,48.2,29.92,SW,224,0.0,2.2,72,0.00,,---,0.00,cosweather0.1e,2013-05-26 03:21:00,
2013-05-25 20:26:00,57.6,48.2,29.92,SW,226,0.0,3.1,72,0.00,,---,0.00,cosweather0.1e,2013-05-26 03:26:00,
2013-05-25 20:31:00,57.4,48.2,29.92,West,260,0.0,5.8,73,0.00,,---,0.00,cosweather0.1e,2013-05-26 03:31:00,
2013-05-25 20:37:00,57.2,48.2,29.92,SSW,213,0.0,6.3,73,0.00,,---,0.00,cosweather0.1e,2013-05-26 03:37:00,
2013-05-25 20:42:00,57.2,48.2,29.92,SSW,213,0.0,0.0,73,0.00,,---,0.00,cosweather0.1e,2013-05-26 03:42:00,
2013-05-25 20:47:00,57.2,48.2,29.92,WSW,243,0.0,3.1,74,0.00,,---,0.00,cosweather0.1e,2013-05-26 03:47:00,
2013-05-25 20:52:00,57.2,48.2,29.92,NNW,333,0.0,3.1,74,0.00,,---,0.00,cosweather0.1e,2013-05-26 03:52:00,
2013-05-25 20:57:00,57.0,50.0,29.92,NW,319,0.0,6.3,75,0.00,,---,0.00,cosweather0.1e,2013-05-26 03:57:00,
2013-05-25 21:01:00,57.0,50.0,29.92,SW,223,0.0,3.6,75,0.00,,---,0.00,cosweather0.1e,2013-05-26 04:01:00,
2013-05-25 21:02:00,57.0,50.0,29.92,NNW,334,0.0,4.5,75,0.00,,---,0.00,cosweather0.1e,2013-05-26 04:02:00,
2013-05-25 21:07:00,57.0,50.0,29.92,West,271,0.0,2.7,75,0.00,,---,0.00,cosweather0.1e,2013-05-26 04:07:00,
2013-05-25 21:12:00,56.8,50.0,29.92,South,187,0.0,3.6,75,0.00,,---,0.00,cosweather0.1e,2013-05-26 04:12:00,
2013-05-25 21:17:00,56.8,50.0,29.92,SW,216,0.0,3.6,76,0.00,,---,0.00,cosweather0.1e,2013-05-26 04:17:00,
2013-05-25 21:22:00,56.7,50.0,29.92,West,281,0.0,5.4,76,0.00,,---,0.00,cosweather0.1e,2013-05-26 04:22:00,
2013-05-25 21:27:00,56.7,50.0,29.92,WNW,286,0.0,2.7,76,0.00,,---,0.00,cosweather0.1e,2013-05-26 04:27:00,
2013-05-25 21:32:00,56.7,50.0,29.92,North,353,0.0,3.1,77,0.00,,---,0.00,cosweather0.1e,2013-05-26 04:32:00,
2013-05-25 21:37:00,56.7,50.0,29.92,SSW,193,0.0,7.6,77,0.00,,---,0.00,cosweather0.1e,2013-05-26 04:37:00,
2013-05-25 21:42:00,56.7,50.0,29.92,SSW,199,0.0,4.9,77,0.00,,---,0.00,cosweather0.1e,2013-05-26 04:42:00,
2013-05-25 21:47:00,56.5,50.0,29.92,WNW,285,0.0,3.6,77,0.00,,---,0.00,cosweather0.1e,2013-05-26 04:47:00,
2013-05-25 21:52:00,56.5,50.0,29.92,WNW,292,0.0,0.0,78,0.00,,---,0.00,cosweather0.1e,2013-05-26 04:52:00,
2013-05-25 21:57:00,56.7,50.0,29.92,WNW,292,0.0,3.1,78,0.00,,---,0.00,cosweather0.1e,2013-05-26 04:57:00,
2013-05-25 22:02:00,56.7,50.0,29.92,NNW,342,0.0,4.9,78,0.00,,---,0.00,cosweather0.1e,2013-05-26 05:02:00,
2013-05-25 22:08:00,56.7,50.0,29.92,NNW,341,0.0,0.0,78,0.00,,---,0.00,cosweather0.1e,2013-05-26 05:08:00,
2013-05-25 22:13:00,56.7,50.0,29.92,WNW,288,0.0,6.3,77,0.00,,---,0.00,cosweather0.1e,2013-05-26 05:13:00,
2013-05-25 22:18:00,56.7,50.0,29.92,West,263,0.0,2.7,77,0.00,,---,0.00,cosweather0.1e,2013-05-26 05:18:00,
2013-05-25 22:23:00,56.7,50.0,29.92,WSW,239,0.0,0.0,77,0.00,,---,0.00,cosweather0.1e,2013-05-26 05:23:00,
2013-05-25 22:28:00,56.7,50.0,29.92,WNW,283,0.0,2.2,77,0.00,,---,0.00,cosweather0.1e,2013-05-26 05:28:00,
2013-05-25 22:33:00,56.7,50.0,29.92,West,276,0.0,0.0,77,0.00,,---,0.00,cosweather0.1e,2013-05-26 05:33:00,
2013-05-25 22:38:00,56.8,50.0,29.92,NW,319,0.0,3.6,77,0.00,,---,0.00,cosweather0.1e,2013-05-26 05:38:00,
2013-05-25 22:43:00,56.8,50.0,29.92,WSW,258,0.0,2.2,77,0.00,,---,0.00,cosweather0.1e,2013-05-26 05:43:00,
2013-05-25 22:48:00,56.8,50.0,29.96,WNW,299,0.0,4.9,77,0.00,,---,0.00,cosweather0.1e,2013-05-26 05:48:00,
2013-05-25 22:53:00,57.0,50.0,29.96,SW,214,0.0,6.3,77,0.00,,---,0.00,cosweather0.1e,2013-05-26 05:53:00,
2013-05-25 22:58:00,56.8,50.0,29.96,SW,236,0.0,0.0,77,0.00,,---,0.00,cosweather0.1e,2013-05-26 05:58:00,
2013-05-25 23:03:00,57.0,50.0,29.96,WNW,284,0.0,2.2,77,0.00,,---,0.00,cosweather0.1e,2013-05-26 06:03:00,
2013-05-25 23:08:00,57.0,50.0,29.96,South,178,0.0,3.1,78,0.00,,---,0.00,cosweather0.1e,2013-05-26 06:08:00,
2013-05-25 23:13:00,56.8,50.0,29.96,SSW,202,0.0,0.0,78,0.00,,---,0.00,cosweather0.1e,2013-05-26 06:13:00,
2013-05-25 23:18:00,56.8,50.0,29.96,WNW,301,0.0,0.0,78,0.00,,---,0.00,cosweather0.1e,2013-05-26 06:18:00,
2013-05-25 23:23:00,56.8,50.0,29.96,WSW,258,0.0,3.6,78,0.00,,---,0.00,cosweather0.1e,2013-05-26 06:23:00,
2013-05-25 23:28:00,56.8,50.0,29.96,West,274,0.0,4.0,78,0.00,,---,0.00,cosweather0.1e,2013-05-26 06:28:00,
2013-05-25 23:33:00,56.8,50.0,29.96,West,266,0.0,5.8,78,0.00,,---,0.00,cosweather0.1e,2013-05-26 06:33:00,
2013-05-25 23:38:00,56.8,50.0,29.96,NW,308,0.0,8.3,78,0.00,,---,0.00,cosweather0.1e,2013-05-26 06:38:00,
2013-05-25 23:43:00,56.8,50.0,29.96,West,269,0.0,3.6,79,0.00,,---,0.00,cosweather0.1e,2013-05-26 06:43:00,
2013-05-25 23:48:00,56.8,50.0,29.96,WNW,302,0.0,3.6,79,0.00,,---,0.00,cosweather0.1e,2013-05-26 06:48:00,
2013-05-25 23:53:00,56.8,50.0,29.96,NW,304,0.0,6.3,79,0.00,,---,0.00,cosweather0.1e,2013-05-26 06:53:00,
2013-05-25 23:58:00,56.7,51.8,29.96,SSW,199,0.0,5.4,80,0.00,,---,0.00,cosweather0.1e,2013-05-26 06:58:00,